Regional Weather Roundup
Issued by NWS Cleveland, OH

Home | Current Version | Previous Version | Text Only | Print | Product List | Glossary On
Versions: 1 2 3 4 5 6 7 8 9 10 11 12 13 14 15 16 17 18 19 20 21 22 23 24 25 26 27 28 29 30 31 32 33 34 35 36 37 38 39 40 41 42 43 44 45 46 47 48 49 50
000
ASUS41 KCLE 282210
RWRCLE
OHIO REGIONAL WEATHER ROUNDUP
NATIONAL WEATHER SERVICE CLEVELAND, OH
600 PM EDT SAT MAR 28 2015

NOTE: "FAIR" INDICATES FEW OR NO CLOUDS BELOW 12,000 FEET WITH NO
SIGNIFICANT WEATHER AND/OR OBSTRUCTIONS TO VISIBILITY.

OHZ001>008-015>018-024>027-034-035-043-044-282300-
   NORTHWEST OHIO

CITY           SKY/WX    TMP DP  RH WIND       PRES   REMARKS
DEFIANCE       SUNNY     37  11  34 CALM      30.28R
FINDLAY        SUNNY     35  11  36 NW8       30.27R WCI  29
TOLEDO EXPRESS SUNNY     35   8  32 N6        30.26S
TOLEDO EXEC    SUNNY     35   7  31 W6        30.28R
LIMA           SUNNY     33  13  43 NW8       30.27R WCI  26
$$

OHZ009>014-019>023-028>033-038-089-282300-
   NORTHEAST OHIO

CITY           SKY/WX    TMP DP  RH WIND       PRES   REMARKS
CLE-HOPKINS    MOSUNNY   26  10  50 N8        30.30R WCI  18
CLE-LAKEFRONT  PTSUNNY   27  13  55 NW12      30.27S WCI  17
CUY CO. ARPT   MOSUNNY   27  14  59 N14       30.26R WCI  15
LORAIN-ELYRIA  SUNNY     26  12  55 N6        30.28S WCI  19
ASHTABULA      SUNNY     24   8  50 NW15      30.23S WCI  11
AKRON-CANTON   MOSUNNY   28   9  44 NW20      30.22R WCI  15
WOOSTER        MOSUNNY   26  14  60 NW13      30.25R WCI  15
MANSFIELD      MOSUNNY   26  13  57 NW12      30.25R WCI  16
YOUNGSTOWN     MOSUNNY   26   6  42 NW17G24   30.20R WCI  13
$$

OHZ042-051>053-060>062-070>072-077>081-282300-
  SOUTHWEST OHIO

CITY           SKY/WX    TMP DP  RH WIND       PRES   REMARKS
CINC-COVINGTON SUNNY     37  11  34 N10       30.27R
CINC-LUNKEN    SUNNY     37  11  34 NE7       30.30R
HAMILTON       SUNNY     37  12  35 MISG      30.30S
DAYTON         MOSUNNY   34  14  43 NW9       30.28R WCI  27
WRIGHT-PAT AFB MOSUNNY   34  11  39 NW9       30.28R WCI  26
DAYTON GENERAL SUNNY     35  11  36 VRB6      30.26R
WILMINGTON     SUNNY     33  11  39 VRB6      30.26R WCI  28
$$

OHZ036-037-039>041-045>050-054>059-063>069-073>076-082>088-282300-
  CENTRAL AND SOUTHEAST OHIO

CITY           SKY/WX    TMP DP  RH WIND       PRES   REMARKS
COLUMBUS       MOSUNNY   31  11  43 N12G17    30.27R WCI  22
OSU AIRPORT    MOSUNNY   32  12  43 N10       30.27R WCI  24
BOLTON FIELD   MOSUNNY   32  12  43 NW10      30.27S WCI  24
RICKENBACK AFB SUNNY     32  10  40 NW12      30.27R WCI  23
NEWARK         MOSUNNY   30  12  47 NW9G18    30.26R WCI  22
MARION         MOSUNNY   30  11  45 N9        30.27S WCI  22
LANCASTER      SUNNY     32  13  45 NW14      30.27R WCI  22
ZANESVILLE     MOSUNNY   31  10  41 N10       30.24R WCI  22
NEW PHILLY     SUNNY     31   8  38 NW17G23   30.24R WCI  19
$$



USA.gov is the U.S. government's official web portal to all federal, state and local government web resources and services.